Location: Unspecified
(50.0000°N, 15.0000°E)
Time: 23:26:55
(UTC+01:00)

X-37B - Visible Passes

Search period start: 02 December 2021 00:00
Search period end: 12 December 2021 00:00
Orbit: 330 x 341 km, 45.0° (Epoch: 20 November)

Date Brightness Start Highest point End Pass type
(mag) Time Alt. Az. Time Alt. Az. Time Alt. Az.
07 Dec 3.2 18:17:47 10° SSW 18:18:08 11° S 18:18:08 11° S visible
08 Dec 3.4 18:37:18 10° SW 18:37:44 13° SSW 18:37:44 13° SSW visible
09 Dec 2.7 17:23:14 10° SSW 17:24:53 14° SSE 17:26:05 12° SE visible
10 Dec 2.1 17:42:44 10° SW 17:45:03 22° SSE 17:45:37 20° SSE visible
11 Dec 1.9 18:02:44 10° SW 18:05:09 28° S 18:05:09 28° S visible
